Location: Ahausen
(50.4985°N, 8.2722°E)
Time: 10:47:25
(UTC+00:00)

Cosmos 2227 Rocket - Pass Details

Date: 18 September 2020
Orbit: 840 x 844 km, 71.0° (Epoch: 25 October)

Event Time Altitude Azimuth Distance (km) Brightness Sun altitude
Rises 23:34:16 0° 332° (NNW) 3,407 6.0 -38.0°
Reaches altitude 10° 23:37:24 10° 349° (N) 2,469 5.3 -38.0°
Maximum altitude 23:41:32 20° 36° (NE) 1,843 4.4 -37.9°
Enters shadow 23:43:02 18° 57° (ENE) 1,934 4.4 -37.9°
